QPF
0.00 0.00 0.00 0.00 0.00 0.00 0.00 0.00 0.00 0.00 0.00 0.00 0.00 0.00 0.02 0.05 0.14 0.12 0.14 0.12 0.13 0.17 0.13 0.10 0.06 0.04 0.02 0.02 0.02 0.02 0.02 0.02 0.03 0.04 0.04 0.04 0.04 0.03 0.00 0.00 0.00 0.00 0.00
0.00 0.00 0.00 0.00 0.00 0.00 0.00 0.00 0.00 0.00 0.00 0.00 0.00 0.00 0.00 0.03 0.09 0.10 0.13 0.18 0.16 0.12 0.12 0.15 0.14 0.11 0.08 0.06 0.03 0.02 0.01 0.01 0.01 0.01 0.01 0.03 0.02 0.01 0.00 0.00 0.00 0.00 0.00
0.00 0.00 0.00 0.00 0.00 0.00 0.00 0.00 0.00 0.00 0.00 0.00 0.00 0.00 0.00 0.00 0.00 0.01 0.01 0.04 0.08 0.11 0.08 0.09 0.12 0.13 0.11 0.08 0.03 0.01 0.01 0.00 0.00 0.00 0.00 0.00 0.00 0.00 0.00 0.00 0.00 0.00 0.00
0.00 0.00 0.00 0.00 0.00 0.00 0.00 0.00 0.00 0.00 0.00 0.00 0.00 0.00 0.00 0.00 0.00 0.00 0.00 0.00 0.01 0.03 0.03 0.01 0.03 0.07 0.10 0.11 0.06 0.01 0.00 0.00 0.00 0.00 0.00 0.00 0.00 0.00 0.01 0.02 0.00 0.00 0.00
0.00 0.00 0.00 0.00 0.00 0.00 0.00 0.00 0.00 0.00 0.00 0.00 0.00 0.00 0.00 0.00 0.00 0.00 0.00 0.00 0.00 0.00 0.00 0.00 0.00 0.01 0.03 0.05 0.06 0.05 0.02 0.01 0.00 0.00 0.00 0.00 0.00 0.00 0.01 0.02 0.00 0.00 0.00
0.01 0.00 0.00 0.00 0.00 0.00 0.03 0.03 0.04 0.03 0.01 0.00 0.00 0.01 0.00 0.00 0.00 0.00 0.00 0.00 0.00 0.00 0.00 0.00 0.00 0.00 0.00 0.00 0.01 0.03 0.04 0.02 0.01 0.00 0.00 0.00 0.00 0.00 0.00 0.01 0.00 0.00 0.00
0.06 0.03 0.02 0.00 0.00 0.01 0.02 0.07 0.21 0.23 0.13 0.01 0.01 0.01 0.00 0.00 0.00 0.00 0.00 0.00 0.00 0.00 0.00 0.00 0.00 0.00 0.00 0.00 0.00 0.00 0.01 0.01 0.02 0.02 0.01 0.01 0.00 0.00 0.00 0.00 0.01 0.00 0.00
0.04 0.03 0.05 0.04 0.02 0.04 0.10 0.18 0.32 0.39 0.21 0.03 0.02 0.04 0.02 0.01 0.00 0.00 0.00 0.00 0.00 0.00 0.00 0.00 0.00 0.00 0.00 0.00 0.00 0.00 0.00 0.01 0.02 0.03 0.02 0.02 0.01 0.00 0.00 0.00 0.00 0.01 0.00
0.08 0.04 0.05 0.05 0.04 0.06 0.12 0.13 0.26 0.43 0.27 0.09 0.03 0.08 0.13 0.13 0.03 0.00 0.00 0.00 0.00 0.00 0.00 0.00 0.00 0.00 0.00 0.00 0.00 0.00 0.00 0.00 0.01 0.01 0.02 0.02 0.02 0.01 0.01 0.01 0.00 0.00 0.01
0.09 0.06 0.07 0.05 0.04 0.05 0.12 0.13 0.19 0.34 0.41 0.29 0.13 0.04 0.04 0.06 0.04 0.04 0.01 0.00 0.00 0.00 0.00 0.00 0.00 0.00 0.00 0.00 0.00 0.00 0.00 0.00 0.00 0.00 0.00 0.01 0.02 0.04 0.03 0.03 0.03 0.02 0.01
0.05 0.04 0.08 0.04 0.03 0.05 0.11 0.18 0.28 0.36 0.44 0.37 0.25 0.15 0.09 0.04 0.02 0.05 0.08 0.02 0.00 0.00 0.00 0.00 0.00 0.00 0.00 0.00 0.00 0.00 0.00 0.00 0.00 0.00 0.00 0.00 0.01 0.03 0.04 0.06 0.05 0.04 0.02
0.11 0.12 0.16 0.10 0.05 0.04 0.08 0.14 0.24 0.32 0.41 0.43 0.31 0.20 0.14 0.06 0.01 0.01 0.04 0.04 0.02 0.00 0.00 0.00 0.00 0.00 0.00 0.00 0.00 0.00 0.00 0.00 0.00 0.00 0.00 0.00 0.00 0.01 0.02 0.04 0.03 0.01 0.01
0.06 0.10 0.18 0.24 0.20 0.12 0.07 0.07 0.13 0.17 0.27 0.42 0.35 0.24 0.16 0.05 0.00 0.00 0.00 0.01 0.01 0.01 0.00 0.00 0.00 0.00 0.00 0.00 0.00 0.00 0.00 0.00 0.00 0.00 0.00 0.00 0.00 0.00 0.00 0.00 0.00 0.00 0.00
0.02 0.01 0.05 0.15 0.25 0.28 0.19 0.11 0.06 0.09 0.17 0.27 0.28 0.34 0.38 0.18 0.03 0.00 0.00 0.01 0.04 0.07 0.07 0.05 0.01 0.00 0.00 0.00 0.00 0.00 0.00 0.00 0.00 0.00 0.00 0.00 0.00 0.00 0.00 0.00 0.00 0.00 0.00
0.01 0.00 0.03 0.05 0.07 0.09 0.10 0.09 0.08 0.06 0.08 0.19 0.25 0.28 0.37 0.32 0.14 0.03 0.01 0.00 0.04 0.13 0.18 0.18 0.07 0.00 0.00 0.00 0.00 0.00 0.00 0.00 0.00 0.00 0.00 0.00 0.00 0.00 0.00 0.00 0.00 0.00 0.00
0.01 0.00 0.00 0.01 0.01 0.01 0.03 0.07 0.10 0.10 0.10 0.14 0.21 0.24 0.27 0.25 0.24 0.12 0.03 0.01 0.01 0.05 0.14 0.15 0.14 0.02 0.00 0.00 0.00 0.00 0.00 0.00 0.00 0.00 0.00 0.00 0.00 0.00 0.00 0.00 0.00 0.00 0.00
0.01 0.00 0.00 0.00 0.01 0.02 0.03 0.06 0.08 0.08 0.10 0.12 0.14 0.17 0.21 0.27 0.38 0.31 0.18 0.10 0.04 0.05 0.13 0.12 0.12 0.03 0.00 0.00 0.00 0.00 0.00 0.00 0.00 0.00 0.00 0.00 0.00 0.00 0.00 0.00 0.00 0.00 0.00
0.00 0.00 0.01 0.01 0.01 0.03 0.04 0.07 0.08 0.09 0.12 0.14 0.13 0.13 0.18 0.31 0.45 0.48 0.45 0.37 0.24 0.17 0.22 0.20 0.10 0.03 0.01 0.00 0.00 0.00 0.00 0.00 0.00 0.00 0.00 0.00 0.00 0.00 0.00 0.00 0.00 0.00 0.00
0.00 0.00 0.00 0.01 0.01 0.02 0.03 0.05 0.09 0.10 0.12 0.17 0.21 0.20 0.18 0.25 0.38 0.46 0.46 0.41 0.33 0.27 0.30 0.27 0.15 0.05 0.03 0.01 0.00 0.00 0.00 0.00 0.00 0.00 0.00 0.00 0.00 0.00 0.00 0.00 0.00 0.00 0.00
0.00 0.00 0.01 0.04 0.03 0.02 0.03 0.05 0.04 0.03 0.04 0.09 0.14 0.18 0.20 0.19 0.23 0.26 0.30 0.31 0.36 0.37 0.37 0.36 0.26 0.09 0.09 0.04 0.00 0.00 0.00 0.00 0.00 0.00 0.00 0.00 0.00 0.00 0.00 0.00 0.00 0.00 0.00
0.00 0.00 0.00 0.03 0.06 0.07 0.07 0.10 0.06 0.02 0.02 0.03 0.05 0.06 0.10 0.12 0.12 0.14 0.17 0.27 0.39 0.42 0.39 0.37 0.33 0.14 0.06 0.03 0.00 0.00 0.00 0.00 0.00 0.00 0.00 0.00 0.00 0.00 0.00 0.00 0.00 0.00 0.00
0.00 0.01 0.00 0.00 0.02 0.02 0.05 0.07 0.03 0.01 0.01 0.02 0.04 0.04 0.05 0.05 0.06 0.05 0.04 0.07 0.19 0.27 0.29 0.28 0.28 0.17 0.08 0.04 0.01 0.00 0.00 0.00 0.00 0.00 0.00 0.00 0.00 0.00 0.00 0.00 0.00 0.00 0.00
0.00 0.00 0.01 0.02 0.02 0.03 0.03 0.02 0.00 0.01 0.01 0.01 0.01 0.02 0.02 0.01 0.02 0.02 0.02 0.02 0.02 0.04 0.11 0.20 0.23 0.24 0.30 0.21 0.08 0.01 0.00 0.00 0.00 0.00 0.00 0.00 0.00 0.00 0.00 0.00 0.00 0.00 0.00
0.05 0.03 0.06 0.09 0.13 0.09 0.04 0.04 0.01 0.01 0.01 0.00 0.00 0.00 0.01 0.01 0.01 0.01 0.02 0.03 0.04 0.08 0.10 0.10 0.14 0.26 0.34 0.39 0.26 0.10 0.04 0.01 0.01 0.00 0.00 0.00 0.00 0.00 0.00 0.00 0.00 0.00 0.00
0.18 0.19 0.25 0.24 0.21 0.12 0.06 0.07 0.04 0.01 0.01 0.01 0.00 0.01 0.01 0.01 0.01 0.01 0.02 0.03 0.07 0.14 0.14 0.17 0.21 0.22 0.22 0.24 0.24 0.16 0.08 0.03 0.01 0.00 0.00 0.00 0.00 0.00 0.00 0.00 0.00 0.00 0.00
0.22 0.28 0.27 0.19 0.15 0.19 0.18 0.13 0.10 0.03 0.03 0.03 0.02 0.02 0.02 0.02 0.02 0.01 0.01 0.03 0.05 0.07 0.09 0.11 0.11 0.10 0.10 0.10 0.11 0.09 0.08 0.05 0.03 0.01 0.00 0.00 0.00 0.00 0.00 0.00 0.00 0.00 0.00
MSLP
1012.29 1012.56 1012.80 1013.02 1013.21 1013.36 1013.48 1013.56 1013.62 1013.67 1013.72 1013.79 1013.90 1014.06 1014.27 1014.50 1014.75 1014.98 1015.16 1015.27 1015.31 1015.30 1015.25 1015.20 1015.18 1015.20 1015.26 1015.35 1015.43 1015.49 1015.51 1015.50 1015.47 1015.46 1015.48 1015.56 1015.69 1015.83 1015.96 1016.03 1016.00 1015.87 1015.68
1011.91 1012.18 1012.46 1012.72 1012.96 1013.18 1013.36 1013.51 1013.64 1013.75 1013.85 1013.98 1014.13 1014.33 1014.55 1014.79 1015.03 1015.23 1015.38 1015.46 1015.49 1015.47 1015.43 1015.41 1015.42 1015.47 1015.55 1015.64 1015.71 1015.74 1015.72 1015.66 1015.60 1015.56 1015.57 1015.64 1015.77 1015.92 1016.05 1016.11 1016.08 1015.95 1015.75
1011.56 1011.83 1012.11 1012.41 1012.71 1013.00 1013.27 1013.50 1013.71 1013.89 1014.07 1014.25 1014.44 1014.66 1014.89 1015.12 1015.32 1015.48 1015.58 1015.62 1015.62 1015.59 1015.57 1015.57 1015.62 1015.71 1015.81 1015.91 1015.97 1015.98 1015.93 1015.84 1015.74 1015.67 1015.66 1015.72 1015.84 1015.98 1016.11 1016.16 1016.12 1015.99 1015.79
1011.30 1011.54 1011.82 1012.15 1012.50 1012.86 1013.20 1013.53 1013.82 1014.09 1014.34 1014.57 1014.81 1015.04 1015.27 1015.47 1015.62 1015.72 1015.77 1015.76 1015.72 1015.68 1015.66 1015.69 1015.77 1015.90 1016.04 1016.15 1016.22 1016.22 1016.14 1016.02 1015.88 1015.78 1015.74 1015.77 1015.88 1016.01 1016.12 1016.17 1016.12 1015.98 1015.78
1011.13 1011.33 1011.61 1011.95 1012.34 1012.76 1013.18 1013.59 1013.97 1014.32 1014.63 1014.92 1015.19 1015.44 1015.65 1015.82 1015.93 1015.97 1015.96 1015.90 1015.82 1015.76 1015.75 1015.80 1015.91 1016.07 1016.23 1016.37 1016.45 1016.44 1016.35 1016.20 1016.04 1015.90 1015.82 1015.83 1015.90 1016.00 1016.10 1016.13 1016.08 1015.94 1015.74
1011.04 1011.21 1011.47 1011.81 1012.23 1012.70 1013.19 1013.66 1014.11 1014.53 1014.91 1015.24 1015.54 1015.80 1016.01 1016.15 1016.23 1016.23 1016.17 1016.07 1015.96 1015.88 1015.86 1015.92 1016.05 1016.24 1016.43 1016.59 1016.68 1016.67 1016.58 1016.41 1016.22 1016.05 1015.93 1015.89 1015.92 1015.99 1016.06 1016.08 1016.02 1015.89 1015.70
1011.02 1011.15 1011.39 1011.73 1012.17 1012.67 1013.19 1013.72 1014.22 1014.69 1015.11 1015.49 1015.82 1016.09 1016.31 1016.45 1016.50 1016.48 1016.39 1016.27 1016.14 1016.05 1016.03 1016.09 1016.24 1016.43 1016.65 1016.82 1016.93 1016.93 1016.83 1016.66 1016.44 1016.24 1016.08 1016.00 1015.98 1016.01 1016.05 1016.06 1016.00 1015.87 1015.69
1011.01 1011.11 1011.33 1011.68 1012.12 1012.63 1013.18 1013.73 1014.25 1014.75 1015.20 1015.60 1015.96 1016.26 1016.49 1016.65 1016.72 1016.70 1016.62 1016.49 1016.36 1016.27 1016.25 1016.31 1016.45 1016.66 1016.88 1017.07 1017.19 1017.21 1017.12 1016.95 1016.72 1016.49 1016.30 1016.17 1016.11 1016.10 1016.11 1016.10 1016.04 1015.93 1015.77
1010.98 1011.07 1011.28 1011.62 1012.05 1012.56 1013.10 1013.65 1014.18 1014.67 1015.13 1015.55 1015.92 1016.25 1016.51 1016.70 1016.81 1016.83 1016.78 1016.68 1016.57 1016.49 1016.47 1016.53 1016.67 1016.88 1017.11 1017.31 1017.45 1017.49 1017.43 1017.26 1017.04 1016.80 1016.58 1016.42 1016.32 1016.27 1016.26 1016.24 1016.19 1016.09 1015.95
1010.90 1010.99 1011.21 1011.54 1011.96 1012.45 1012.97 1013.49 1013.98 1014.45 1014.89 1015.30 1015.68 1016.03 1016.33 1016.57 1016.73 1016.81 1016.82 1016.76 1016.69 1016.63 1016.63 1016.69 1016.84 1017.04 1017.28 1017.50 1017.67 1017.74 1017.71 1017.58 1017.38 1017.15 1016.92 1016.74 1016.61 1016.54 1016.50 1016.48 1016.44 1016.37 1016.25
1010.78 1010.89 1011.11 1011.43 1011.84 1012.30 1012.77 1013.24 1013.68 1014.10 1014.49 1014.87 1015.24 1015.60 1015.93 1016.22 1016.45 1016.60 1016.67 1016.68 1016.66 1016.64 1016.66 1016.74 1016.89 1017.10 1017.35 1017.59 1017.79 1017.91 1017.93 1017.86 1017.70 1017.50 1017.29 1017.10 1016.96 1016.87 1016.83 1016.81 1016.78 1016.73 1016.63
1010.63 1010.76 1011.00 1011.32 1011.70 1012.12 1012.54 1012.94 1013.31 1013.66 1013.99 1014.32 1014.66 1015.01 1015.36 1015.68 1015.97 1016.18 1016.33 1016.41 1016.45 1016.48 1016.53 1016.63 1016.79 1017.01 1017.27 1017.55 1017.79 1017.96 1018.05 1018.05 1017.95 1017.80 1017.63 1017.46 1017.33 1017.24 1017.19 1017.17 1017.15 1017.12 1017.05
1010.47 1010.63 1010.88 1011.20 1011.56 1011.94 1012.30 1012.63 1012.92 1013.19 1013.44 1013.71 1014.00 1014.33 1014.67 1015.02 1015.34 1015.62 1015.83 1015.98 1016.08 1016.16 1016.25 1016.37 1016.54 1016.78 1017.06 1017.36 1017.65 1017.89 1018.05 1018.13 1018.11 1018.04 1017.92 1017.79 1017.67 1017.59 1017.54 1017.52 1017.52 1017.50 1017.45
1010.32 1010.52 1010.78 1011.09 1011.44 1011.78 1012.09 1012.36 1012.57 1012.76 1012.94 1013.14 1013.37 1013.65 1013.97 1014.32 1014.66 1014.98 1015.25 1015.46 1015.62 1015.74 1015.86 1016.01 1016.20 1016.45 1016.75 1017.08 1017.40 1017.70 1017.93 1018.09 1018.17 1018.17 1018.12 1018.04 1017.96 1017.89 1017.84 1017.83 1017.82 1017.80 1017.77
1010.19 1010.40 1010.67 1010.99 1011.33 1011.64 1011.92 1012.14 1012.31 1012.43 1012.55 1012.68 1012.85 1013.08 1013.36 1013.69 1014.04 1014.38 1014.68 1014.94 1015.14 1015.31 1015.47 1015.64 1015.84 1016.10 1016.40 1016.74 1017.10 1017.43 1017.73 1017.96 1018.12 1018.20 1018.22 1018.20 1018.15 1018.11 1018.07 1018.05 1018.03 1018.02 1017.98
1010.04 1010.27 1010.55 1010.88 1011.21 1011.52 1011.79 1011.99 1012.14 1012.23 1012.30 1012.38 1012.50 1012.68 1012.92 1013.22 1013.56 1013.90 1014.22 1014.51 1014.75 1014.96 1015.15 1015.33 1015.54 1015.79 1016.09 1016.42 1016.78 1017.14 1017.47 1017.76 1017.98 1018.14 1018.23 1018.26 1018.26 1018.24 1018.21 1018.18 1018.16 1018.13 1018.10
1009.86 1010.09 1010.38 1010.72 1011.06 1011.39 1011.67 1011.90 1012.05 1012.14 1012.20 1012.25 1012.34 1012.48 1012.68 1012.95 1013.26 1013.59 1013.92 1014.23 1014.50 1014.73 1014.94 1015.13 1015.34 1015.57 1015.85 1016.16 1016.50 1016.85 1017.19 1017.51 1017.78 1017.99 1018.14 1018.23 1018.27 1018.28 1018.26 1018.24 1018.20 1018.17 1018.12
1009.60 1009.84 1010.14 1010.48 1010.85 1011.21 1011.53 1011.79 1011.98 1012.10 1012.18 1012.24 1012.31 1012.42 1012.59 1012.82 1013.10 1013.42 1013.75 1014.06 1014.35 1014.61 1014.83 1015.03 1015.22 1015.43 1015.67 1015.94 1016.24 1016.56 1016.90 1017.22 1017.51 1017.76 1017.96 1018.10 1018.19 1018.24 1018.25 1018.23 1018.19 1018.15 1018.10
1009.28 1009.50 1009.80 1010.16 1010.55 1010.95 1011.32 1011.64 1011.88 1012.06 1012.17 1012.25 1012.32 1012.42 1012.56 1012.76 1013.02 1013.31 1013.63 1013.95 1014.25 1014.51 1014.75 1014.95 1015.13 1015.31 1015.51 1015.73 1015.98 1016.26 1016.56 1016.87 1017.17 1017.45 1017.69 1017.88 1018.03 1018.12 1018.16 1018.17 1018.15 1018.12 1018.07
1008.90 1009.10 1009.39 1009.75 1010.16 1010.60 1011.02 1011.39 1011.69 1011.92 1012.08 1012.19 1012.27 1012.36 1012.49 1012.66 1012.89 1013.16 1013.46 1013.78 1014.08 1014.35 1014.59 1014.79 1014.97 1015.12 1015.28 1015.45 1015.65 1015.89 1016.16 1016.45 1016.75 1017.05 1017.33 1017.57 1017.77 1017.92 1018.01 1018.07 1018.08 1018.07 1018.05
1008.50 1008.68 1008.95 1009.30 1009.72 1010.17 1010.62 1011.03 1011.38 1011.66 1011.85 1011.98 1012.08 1012.17 1012.28 1012.42 1012.62 1012.87 1013.15 1013.46 1013.76 1014.04 1014.28 1014.49 1014.65 1014.79 1014.92 1015.06 1015.22 1015.42 1015.66 1015.93 1016.24 1016.55 1016.86 1017.16 1017.41 1017.63 1017.79 1017.90 1017.97 1018.01 1018.02
1008.17 1008.31 1008.55 1008.87 1009.26 1009.71 1010.16 1010.59 1010.96 1011.25 1011.47 1011.61 1011.71 1011.80 1011.89 1012.01 1012.18 1012.40 1012.67 1012.96 1013.25 1013.53 1013.78 1013.99 1014.16 1014.29 1014.41 1014.53 1014.67 1014.85 1015.07 1015.33 1015.64 1015.97 1016.31 1016.65 1016.97 1017.25 1017.48 1017.67 1017.81 1017.91 1017.97
1007.95 1008.05 1008.24 1008.52 1008.87 1009.28 1009.70 1010.10 1010.46 1010.75 1010.96 1011.11 1011.20 1011.28 1011.35 1011.45 1011.60 1011.79 1012.03 1012.30 1012.59 1012.86 1013.11 1013.33 1013.51 1013.65 1013.78 1013.90 1014.03 1014.20 1014.41 1014.68 1014.99 1015.33 1015.70 1016.08 1016.44 1016.78 1017.08 1017.34 1017.56 1017.73 1017.87
1007.91 1007.97 1008.11 1008.32 1008.61 1008.95 1009.30 1009.65 1009.96 1010.22 1010.41 1010.54 1010.62 1010.68 1010.74 1010.83 1010.95 1011.13 1011.35 1011.60 1011.87 1012.14 1012.39 1012.62 1012.80 1012.96 1013.10 1013.23 1013.38 1013.56 1013.77 1014.04 1014.35 1014.70 1015.08 1015.48 1015.87 1016.25 1016.60 1016.92 1017.20 1017.45 1017.66
1008.05 1008.07 1008.16 1008.31 1008.51 1008.76 1009.04 1009.30 1009.55 1009.75 1009.90 1010.00 1010.07 1010.12 1010.18 1010.26 1010.38 1010.54 1010.75 1010.99 1011.24 1011.50 1011.75 1011.98 1012.17 1012.35 1012.50 1012.65 1012.81 1013.00 1013.22 1013.49 1013.80 1014.14 1014.52 1014.91 1015.30 1015.69 1016.07 1016.42 1016.75 1017.05 1017.32
1008.37 1008.36 1008.39 1008.47 1008.60 1008.75 1008.92 1009.10 1009.26 1009.39 1009.50 1009.58 1009.64 1009.70 1009.76 1009.86 1009.98 1010.15 1010.35 1010.58 1010.83 1011.08 1011.32 1011.54 1011.73 1011.91 1012.08 1012.24 1012.42 1012.61 1012.83 1013.09 1013.38 1013.70 1014.04 1014.40 1014.77 1015.14 1015.51 1015.86 1016.21 1016.54 1016.86
Thickness
5754 5750 5749 5743 5741 5740 5739 5740 5740 5739 5738 5738 5738 5736 5735 5734 5732 5732 5734 5736 5738 5740 5742 5743 5743 5743 5744 5746 5748 5750 5752 5754 5756 5757 5758 5759 5761 5761 5762 5763 5763 5764 5765
5754 5750 5748 5744 5741 5739 5738 5738 5738 5734 5732 5731 5730 5730 5730 5730 5729 5729 5729 5731 5733 5735 5737 5738 5739 5739 5741 5742 5744 5747 5749 5752 5754 5755 5756 5757 5759 5759 5760 5761 5761 5761 5762
5753 5749 5746 5742 5739 5737 5736 5736 5734 5733 5728 5725 5724 5725 5725 5726 5727 5725 5725 5725 5726 5729 5730 5732 5734 5735 5737 5739 5741 5744 5746 5749 5751 5752 5753 5755 5756 5757 5758 5759 5758 5758 5760
5752 5749 5745 5741 5738 5736 5734 5731 5728 5727 5724 5722 5720 5721 5721 5721 5723 5722 5721 5721 5722 5722 5723 5726 5728 5731 5733 5736 5738 5741 5743 5746 5747 5749 5751 5753 5754 5755 5758 5758 5756 5755 5757
5750 5747 5743 5739 5737 5734 5731 5728 5725 5723 5720 5719 5717 5717 5717 5717 5718 5719 5718 5718 5718 5718 5718 5720 5724 5726 5728 5731 5734 5736 5739 5741 5743 5746 5749 5751 5752 5754 5757 5757 5755 5754 5755
5749 5747 5741 5737 5734 5730 5727 5725 5721 5720 5718 5715 5714 5711 5712 5713 5715 5714 5714 5715 5715 5715 5716 5718 5720 5722 5724 5726 5728 5730 5733 5736 5739 5742 5745 5748 5750 5752 5755 5756 5755 5754 5755
5746 5744 5739 5735 5731 5727 5723 5721 5718 5715 5713 5712 5706 5702 5704 5709 5709 5709 5711 5711 5712 5712 5714 5717 5719 5720 5720 5721 5723 5725 5728 5731 5735 5737 5741 5745 5748 5750 5753 5754 5754 5753 5755
5740 5739 5734 5729 5727 5724 5720 5717 5713 5708 5707 5709 5702 5694 5690 5693 5700 5706 5707 5707 5707 5710 5712 5714 5717 5719 5718 5717 5718 5720 5723 5726 5729 5733 5737 5740 5744 5746 5749 5752 5752 5753 5754
5735 5733 5729 5725 5722 5720 5716 5713 5709 5704 5699 5702 5705 5696 5688 5685 5690 5698 5703 5704 5705 5705 5708 5711 5713 5715 5715 5714 5714 5716 5719 5722 5726 5729 5732 5735 5738 5742 5745 5748 5749 5751 5751
5727 5726 5723 5719 5716 5714 5712 5711 5708 5704 5698 5693 5696 5702 5703 5699 5692 5689 5696 5702 5703 5703 5704 5706 5708 5710 5711 5710 5710 5712 5715 5719 5721 5724 5726 5729 5732 5736 5740 5742 5744 5746 5747
5721 5718 5715 5712 5709 5707 5706 5706 5704 5702 5698 5693 5689 5693 5699 5704 5704 5693 5689 5695 5700 5703 5704 5705 5705 5707 5707 5707 5707 5708 5710 5713 5715 5717 5719 5721 5725 5729 5732 5736 5739 5740 5741
5713 5712 5709 5706 5704 5702 5701 5701 5700 5699 5697 5694 5691 5690 5694 5698 5699 5699 5694 5694 5695 5700 5703 5704 5704 5704 5704 5704 5704 5704 5705 5708 5710 5711 5713 5715 5718 5721 5725 5728 5731 5733 5734
5704 5703 5702 5700 5699 5699 5698 5697 5697 5696 5695 5693 5692 5692 5694 5701 5705 5705 5701 5697 5697 5700 5701 5701 5702 5702 5702 5701 5701 5701 5702 5704 5706 5707 5709 5710 5712 5714 5717 5719 5722 5724 5726
5702 5700 5697 5695 5694 5695 5695 5695 5694 5694 5694 5695 5695 5695 5692 5696 5705 5707 5705 5700 5695 5694 5696 5697 5701 5701 5701 5700 5699 5699 5699 5701 5702 5704 5705 5705 5706 5707 5709 5711 5713 5715 5718
5698 5695 5692 5690 5690 5691 5692 5691 5690 5690 5691 5693 5694 5695 5695 5694 5697 5704 5707 5706 5697 5687 5687 5694 5696 5700 5700 5699 5698 5698 5698 5699 5699 5700 5701 5702 5701 5702 5703 5705 5707 5708 5711
5696 5691 5689 5689 5687 5686 5686 5686 5685 5685 5686 5688 5689 5689 5691 5694 5691 5695 5701 5704 5703 5696 5689 5695 5698 5701 5699 5697 5696 5696 5695 5695 5695 5696 5697 5698 5698 5698 5699 5700 5702 5703 5705
5693 5690 5687 5686 5686 5683 5682 5681 5680 5681 5681 5681 5681 5681 5683 5687 5686 5687 5692 5697 5699 5698 5692 5695 5698 5699 5696 5694 5692 5692 5691 5691 5691 5692 5693 5694 5695 5695 5695 5697 5698 5699 5700
5691 5689 5687 5685 5684 5681 5680 5678 5676 5677 5677 5676 5675 5674 5674 5678 5677 5677 5682 5687 5691 5693 5690 5688 5690 5692 5693 5692 5689 5689 5690 5691 5690 5690 5690 5690 5691 5692 5692 5692 5693 5693 5694
5688 5687 5686 5684 5682 5679 5677 5675 5674 5673 5673 5672 5670 5668 5667 5668 5668 5668 5673 5678 5682 5685 5686 5685 5685 5687 5689 5690 5686 5686 5687 5688 5689 5687 5686 5686 5686 5687 5686 5686 5686 5687 5688
5687 5685 5683 5681 5680 5677 5674 5672 5670 5668 5667 5666 5665 5663 5662 5661 5662 5663 5667 5671 5675 5676 5677 5679 5680 5681 5681 5685 5684 5680 5680 5682 5684 5683 5682 5681 5681 5681 5681 5680 5680 5681 5681
5686 5683 5680 5677 5675 5673 5672 5669 5666 5664 5662 5660 5660 5659 5659 5659 5660 5662 5665 5668 5670 5669 5670 5672 5674 5675 5675 5676 5678 5678 5676 5676 5677 5679 5677 5676 5676 5675 5675 5675 5675 5674 5674
5683 5680 5677 5673 5670 5670 5670 5667 5663 5661 5659 5657 5657 5658 5658 5659 5659 5661 5664 5667 5667 5665 5665 5668 5671 5672 5674 5675 5676 5675 5672 5669 5668 5674 5673 5671 5672 5672 5673 5671 5670 5668 5667
5677 5674 5671 5669 5666 5665 5664 5662 5659 5657 5657 5658 5659 5658 5659 5660 5660 5660 5661 5663 5664 5665 5667 5668 5670 5673 5675 5676 5673 5671 5670 5668 5668 5671 5668 5666 5668 5669 5671 5671 5668 5664 5662
5671 5668 5665 5663 5661 5659 5657 5655 5654 5652 5653 5656 5659 5660 5660 5661 5661 5660 5660 5660 5661 5665 5668 5668 5670 5674 5677 5676 5674 5672 5669 5666 5667 5668 5665 5660 5662 5663 5665 5663 5662 5660 5657
5663 5661 5660 5657 5654 5653 5651 5649 5647 5646 5647 5650 5655 5658 5660 5661 5662 5660 5658 5657 5658 5661 5664 5665 5667 5669 5671 5672 5671 5666 5662 5657 5657 5659 5660 5658 5658 5657 5658 5656 5655 5655 5653
5656 5655 5654 5652 5649 5647 5646 5643 5641 5640 5640 5644 5648 5653 5655 5656 5657 5655 5653 5654 5653 5655 5658 5659 5660 5662 5664 5665 5666 5664 5661 5656 5653 5653 5655 5654 5654 5652 5650 5651 5650 5649 5647